Regional Weather Roundup
Issued by NWS

Home | Current Version | Previous Version | Text Only | Print | Product List | Glossary On
Versions: 1 2 3 4 5 6 7 8 9 10 11 12 13 14 15 16 17 18 19 20 21 22 23 24 25 26 27 28 29 30 31 32 33 34 35 36 37 38 39 40 41 42 43 44 45 46 47 48 49 50
000
ASUS43 KMKX 041700
RWRWI

WISCONSIN REGIONAL WEATHER ROUNDUP
NATIONAL WEATHER SERVICE MILWAUKEE/SULLIVAN WI
1200 PM CDT TUE AUG 04 2015

NOTE: "FAIR" INDICATES FEW OR NO CLOUDS BELOW 12,000 FEET WITH NO
SIGNIFICANT WEATHER AND/OR OBSTRUCTIONS TO VISIBILITY.

WIZ001-002-006>008-014>016-023>028-041800-
NORTHWEST WISCONSIN

CITY           SKY/WX    TMP DP  RH WIND       PRES   REMARKS
SUPERIOR ARPT  CLOUDY    71  56  59 W9        29.98S
ASHLAND        CLOUDY    69  53  56 NW8       29.98R
HAYWARD        PTSUNNY   70  50  49 NW9       29.99F
SIREN          SUNNY     73  51  46 NW9       30.00S
CUMBERLAND     SUNNY     70  50  49 NW9       30.00F
RICE LAKE      MOSUNNY   73  51  46 W12G17    30.01F
CHETEK         MOSUNNY   72  54  52 W6        30.00S
LADYSMITH      MOSUNNY   71  53  52 NW12      30.01S
EAU CLAIRE     NOT AVBL
MENOMONIE      SUNNY     75  52  44 NW10      30.01S
NEW RICHMOND   SUNNY     73  52  49 NW10      30.01F
OSCEOLA        SUNNY     73  54  50 W6G16     30.02F
$$

WIZ003>005-009-010-017-018-041800-
NORTH CENTRAL WISCONSIN

CITY           SKY/WX    TMP DP  RH WIND       PRES   REMARKS
MANITOWISH WTR CLOUDY    64  52  64 NW8       29.98S
ARBOR VITAE    PTSUNNY   65  53  63 NW9       29.99R
WOODRUFF       PTSUNNY   65  53  63 NW9       29.99R
RHINELANDER    MOSUNNY   70  50  49 W14G21    29.98S
EAGLE RIVER    CLOUDY    64  50  61 NW9       29.97S
LAND O LAKES   CLOUDY    64  51  60 NW8       29.98R
PHILLIPS       PTSUNNY   67  54  62 NW7       29.99S
TOMAHAWK       MOSUNNY   67  51  56 NW10G18   29.98F
MEDFORD        SUNNY     70  52  53 NW12G22   29.99S
MERRILL        NOT AVBL
$$

WIZ029-030-035-036-043>047-041800-
CENTRAL WISCONSIN

CITY           SKY/WX    TMP DP  RH WIND       PRES   REMARKS
WAUSAU         MOSUNNY   74  49  41 NW14G22   29.95F
MOSINEE        MOSUNNY   70  54  56 NW15G28   29.99S
MARSHFIELD     PTSUNNY   72  51  47 NW17G23   29.99S
STEVENS POINT  PTSUNNY   70  50  49 NW8       29.98S
WAUPACA        PTSUNNY   76  48  36 NW12G22   29.96F
WAUTOMA        NOT AVBL
WISC RAPIDS    PTSUNNY   74  49  41 NW12G22   30.00S
CAMP DOUGLAS   NOT AVBL
$$

WIZ011>013-019>022-031-037>040-048>050-041800-
NORTHEAST WISCONSIN

CITY           SKY/WX    TMP DP  RH WIND       PRES   REMARKS
ANTIGO         PTSUNNY   70  51  50 NW14G25   29.97S
SHAWANO        MOSUNNY   74  52  46 NW10G16   29.94F
OCONTO         CLOUDY    72  55  55 NW8       29.92F
STURGEON BAY   PTSUNNY   66  55  68 NW6       29.96S
GREEN BAY      PTSUNNY   75  57  53 NW9G18    29.94S
MANITOWOC      NOT AVBL
APPLETON       PTSUNNY   72  46  40 NW13G20   29.96S
CLINTONVILLE   MOSUNNY   73  46  38 NW14G20   29.95S
OSHKOSH        PTSUNNY   73  53  49 NW12      29.96S
$$

WIZ032>034-041-042-053>061-041800-
SOUTHWEST WISCONSIN

CITY           SKY/WX    TMP DP  RH WIND       PRES   REMARKS
LA CROSSE      MOSUNNY   77  53  43 N6        30.00F
SPARTA         MOSUNNY   75  47  36 NW12      30.02S
VIROQUA        MOSUNNY   73  52  49 NW5       30.03S
BOSCOBEL       PTSUNNY   77  53  43 W6        30.01S
PRAIRIE DU CHI CLOUDY    75  48  39 NW5       30.02S
PLATTEVILLE    CLOUDY    74  56  53 W7        30.02S
$$

WIZ056-057-062-063-064-067-068-041800-
SOUTH CENTRAL WISCONSIN

CITY           SKY/WX    TMP DP  RH WIND       PRES   REMARKS
REEDSBURG      MOSUNNY   75  51  43 W9        30.00S
BARABOO/DELLS  MOSUNNY   75  46  35 NW9       30.00S
LONE ROCK      NOT AVBL
MINERAL POINT  PTSUNNY   75  50  41 W8        30.03S
MADISON        PTSUNNY   75  51  43 NW8G17    29.99S
MIDDLETON      MOSUNNY   76  46  34 NW10G20   30.00S
WATERTOWN      SUNNY     74  54  49 W12       29.98S
MONROE         PTSUNNY   73  54  49 W8G16     30.00F
JANESVILLE     PTSUNNY   79  52  38 NW10      29.98S
$$

WIZ051-052-058>065-066-070>072-041800-
SOUTHEAST WISCONSIN

CITY           SKY/WX    TMP DP  RH WIND       PRES   REMARKS
MILWAUKEE      MOSUNNY   78  51  38 W15G21    29.96S
WAUKESHA       MOSUNNY   73  54  49 W9        29.99R
MILWAUKEE/TIMM MOSUNNY   75  52  43 W12G21    29.97S
RACINE         MOSUNNY   77  53  43 W14G21    29.97S
BURLINGTON     SUNNY     76  52  43 W12G17    29.98S
KENOSHA        MOSUNNY   76  56  49 W15G22    29.96F
FOND DU LAC    SUNNY     75  53  46 NW12      29.97S
SHEBOYGAN      MOSUNNY   74  56  53 NW13      29.95S
WEST BEND      MOSUNNY   72  50  46 NW14      29.97S
JUNEAU         SUNNY     72  54  52 NW10G16   29.99S
$$

LSZ147-162-041800-
LAKE SUPERIOR

STATION/POSITION TIME  TEMP    WIND        PRES    WAVE
                       AIR SEA DIR/SP/G            HT/PER
                 (UTC) (F)     (DEG/KT/KT) (MB)    (FT/S)
W MID LAKE BUOY  1550   57 56  320/  4/  6 1014.7R   1
DEVILS ISLAND    1600   57     250/  7/ 10 1015.3R
PORT WING        1600   62     310/  4/  5 1015.6R
SAXON HARBOR     1640   65      20/  4     1015.2R
$$

LMZ867-665-643>646-041800-
LAKE MICHIGAN

STATION/POSITION TIME  TEMP    WIND        PRES    WAVE
                       AIR SEA DIR/SP/G            HT/PER
                 (UTC) (F)     (DEG/KT/KT) (MB)    (FT/S)
CHAMBERS ISLAND  1600   66     230/  4/  6 1013.5S
S GREEN BAY BUOY 1500   65 71  260/  6/  6 1015.1R
N MID LAKE BUOY  1550   62 68  320/  2/  4 1013.1R   1/ 3
NORTHPORT PIER   1600   65     340/  4/  7 1013.2S
SISTER BAY       1603   68     330/  6/  7   N/A
ALGOMA LAKESHORE 1612          330/  8/ 13   N/A
KEWAUNEE LAKESHO 1600   69     310/  5/ 11 1013.3R
SHEBOYGAN LAKESH 1600   65      90/  5/  5 1014.3R
PORT WASHINGTON  1600   75     300/  9/ 16 1014.9R
ATWATER BUOY     1600   65 52  330/  6/  8 1015.8R
MILWAUKEE LAKESH 1600   74     300/  6/ 11   N/A
KENOSHA   LAKESH 1600   75     290/ 13/ 19 1014.2S
$$

TC  - TEMPERATURE IN CELSIUS
VSB - VISIBILITY IN STATUTE MILES
WCI - WIND CHILL INDEX
HX  - HEAT INDEX



USA.gov is the U.S. government's official web portal to all federal, state and local government web resources and services.